EXS1325 EGNX-GCFV

Flight info

Callsign EXS1325
Flight time 4h 9m
Altitude 31000
Route SAPCO Y53 DTY DCT SILVA Q41 SAM M195 IBNID/N0458F330 M195 LORKU DCT BALDA DCT ABUPI DCT TAKAV/N0458F350 DCT VEDOD UN857 TERTO
Aircraft A321/M-SDE3FGHIRWY/LB1

Departure

Time 2026-05-03 21:12
Airport East Midlands Airport (EGNX)

Arrival

Time 2026-05-04 01:21
Airport Fuerteventura Airport (GCFV)
Time Latitude Longitude Altitude Speed Heading
2026-05-03 20:34 52.82730 -1.32934 300 ft 0 kts 178°
2026-05-03 21:03 52.82733 -1.32934 303 ft 3 kts 178°
2026-05-03 21:03 52.82756 -1.32935 300 ft 3 kts 178°
2026-05-03 21:04 52.82775 -1.32936 300 ft 3 kts 198°
2026-05-03 21:04 52.82791 -1.32916 303 ft 3 kts 244°
2026-05-03 21:04 52.82799 -1.32880 300 ft 2 kts 253°
2026-05-03 21:04 52.82800 -1.32877 300 ft 0 kts 253°
2026-05-03 21:06 52.82800 -1.32879 300 ft 1 kts 253°
2026-05-03 21:06 52.82796 -1.32914 302 ft 5 kts 262°
2026-05-03 21:07 52.82793 -1.33001 300 ft 11 kts 267°
2026-05-03 21:07 52.82794 -1.33124 300 ft 9 kts 289°
2026-05-03 21:07 52.82846 -1.33162 300 ft 9 kts 354°
2026-05-03 21:07 52.82910 -1.33187 304 ft 11 kts 318°
2026-05-03 21:08 52.82922 -1.33302 306 ft 10 kts 268°
2026-05-03 21:08 52.82919 -1.33434 308 ft 15 kts 268°
2026-05-03 21:08 52.82916 -1.33639 307 ft 20 kts 268°
2026-05-03 21:08 52.82912 -1.33860 305 ft 18 kts 268°
2026-05-03 21:09 52.82908 -1.34070 301 ft 19 kts 268°
2026-05-03 21:09 52.82907 -1.34279 305 ft 16 kts 272°
2026-05-03 21:09 52.82907 -1.34442 305 ft 13 kts 268°
2026-05-03 21:09 52.82903 -1.34596 306 ft 13 kts 269°
2026-05-03 21:10 52.82902 -1.34732 304 ft 11 kts 268°
2026-05-03 21:10 52.82900 -1.34854 306 ft 12 kts 271°
2026-05-03 21:10 52.82951 -1.34934 305 ft 12 kts 352°
2026-05-03 21:10 52.83050 -1.34913 305 ft 16 kts 42°
2026-05-03 21:11 52.83065 -1.34759 302 ft 14 kts 88°
2026-05-03 21:11 52.83068 -1.34543 302 ft 38 kts 89°
2026-05-03 21:11 52.83084 -1.33697 308 ft 105 kts 88°
2026-05-03 21:11 52.83113 -1.32175 305 ft 157 kts 89°
2026-05-03 21:12 52.83136 -1.30215 534 ft 179 kts 90°
2026-05-03 21:12 52.83082 -1.28168 1268 ft 177 kts 91°
2026-05-03 21:12 52.82957 -1.26158 1993 ft 174 kts 92°
2026-05-03 21:12 52.82750 -1.24153 2302 ft 186 kts 106°
2026-05-03 21:13 52.82089 -1.22194 2453 ft 206 kts 127°
2026-05-03 21:13 52.81049 -1.20418 2572 ft 224 kts 132°
2026-05-03 21:13 52.79915 -1.18486 2754 ft 244 kts 132°
2026-05-03 21:13 52.78687 -1.16386 3126 ft 260 kts 134°
2026-05-03 21:14 52.77150 -1.14800 3724 ft 266 kts 167°
2026-05-03 21:14 52.75326 -1.14913 4391 ft 266 kts 202°
2026-05-03 21:14 52.73712 -1.16378 5120 ft 265 kts 218°
2026-05-03 21:14 52.72278 -1.18279 5850 ft 265 kts 223°
2026-05-03 21:15 52.70898 -1.20311 6556 ft 266 kts 223°
2026-05-03 21:15 52.69515 -1.22353 7223 ft 268 kts 222°
2026-05-03 21:15 52.68096 -1.24384 7876 ft 271 kts 221°
2026-05-03 21:15 52.66642 -1.26388 8531 ft 274 kts 220°
2026-05-03 21:16 52.65151 -1.28386 8856 ft 277 kts 219°
2026-05-03 21:16 52.63665 -1.30340 8913 ft 276 kts 219°
2026-05-03 21:16 52.62159 -1.32300 8919 ft 276 kts 219°
2026-05-03 21:16 52.60648 -1.34260 8920 ft 276 kts 218°
2026-05-03 21:17 52.59007 -1.35883 8921 ft 277 kts 202°
2026-05-03 21:17 52.57775 -1.36459 9067 ft 280 kts 189°
2026-05-03 21:17 52.55161 -1.36325 9957 ft 285 kts 167°
2026-05-03 21:17 52.53258 -1.35220 10284 ft 300 kts 159°
2026-05-03 21:18 52.51266 -1.33888 10417 ft 319 kts 159°
2026-05-03 21:18 52.49152 -1.32442 10545 ft 338 kts 159°
2026-05-03 21:18 52.46921 -1.30904 10667 ft 356 kts 158°
2026-05-03 21:18 52.44623 -1.29322 10836 ft 370 kts 159°
2026-05-03 21:19 52.42190 -1.27658 11296 ft 376 kts 159°
2026-05-03 21:19 52.39796 -1.26030 11831 ft 379 kts 159°
2026-05-03 21:19 52.37358 -1.24379 12380 ft 382 kts 159°
2026-05-03 21:19 52.34888 -1.22718 12920 ft 384 kts 159°
2026-05-03 21:20 52.32409 -1.21052 13462 ft 387 kts 159°
2026-05-03 21:20 52.29903 -1.19366 13960 ft 390 kts 159°
2026-05-03 21:20 52.27389 -1.17678 14417 ft 392 kts 159°
2026-05-03 21:20 52.24860 -1.15980 14938 ft 393 kts 159°
2026-05-03 21:21 52.22326 -1.14279 15406 ft 395 kts 159°
2026-05-03 21:21 52.19773 -1.12566 15865 ft 397 kts 159°
2026-05-03 21:21 52.17163 -1.11099 16303 ft 398 kts 167°
2026-05-03 21:21 52.14452 -1.10173 16748 ft 400 kts 170°
2026-05-03 21:22 52.11719 -1.09286 17194 ft 402 kts 170°
2026-05-03 21:22 52.08966 -1.08396 17633 ft 404 kts 170°
2026-05-03 21:22 52.06199 -1.07502 18068 ft 407 kts 170°
2026-05-03 21:22 52.03448 -1.06611 18448 ft 409 kts 170°
2026-05-03 21:23 52.00656 -1.05702 18844 ft 410 kts 170°
2026-05-03 21:23 51.97849 -1.04788 19233 ft 412 kts 170°
2026-05-03 21:23 51.95032 -1.03873 19632 ft 414 kts 170°
2026-05-03 21:23 51.92200 -1.02954 20029 ft 415 kts 171°
2026-05-03 21:24 51.89359 -1.02033 20417 ft 417 kts 171°
2026-05-03 21:24 51.86496 -1.01190 20798 ft 418 kts 175°
2026-05-03 21:24 51.83596 -1.01011 21171 ft 418 kts 184°
2026-05-03 21:24 51.80712 -1.01584 21539 ft 418 kts 191°
2026-05-03 21:25 51.77836 -1.02353 21971 ft 419 kts 191°
2026-05-03 21:25 51.74952 -1.03105 22375 ft 420 kts 190°
2026-05-03 21:25 51.72061 -1.03842 22763 ft 422 kts 190°
2026-05-03 21:25 51.69158 -1.04574 23134 ft 423 kts 190°
2026-05-03 21:26 51.66241 -1.05309 23487 ft 425 kts 190°
2026-05-03 21:26 51.63321 -1.06048 23785 ft 427 kts 190°
2026-05-03 21:26 51.60405 -1.06987 24064 ft 427 kts 196°
2026-05-03 21:26 51.57559 -1.08215 24338 ft 429 kts 196°
2026-05-03 21:27 51.54635 -1.09479 24636 ft 430 kts 196°
2026-05-03 21:27 51.51786 -1.10707 24931 ft 431 kts 196°
2026-05-03 21:27 51.48885 -1.11950 25216 ft 433 kts 196°
2026-05-03 21:27 51.45961 -1.13201 25496 ft 434 kts 196°
2026-05-03 21:28 51.43040 -1.14451 25767 ft 436 kts 196°
2026-05-03 21:28 51.40106 -1.15702 26129 ft 435 kts 196°
2026-05-03 21:28 51.37186 -1.16947 26524 ft 434 kts 196°
2026-05-03 21:28 51.34276 -1.18186 26907 ft 433 kts 195°
2026-05-03 21:29 51.31367 -1.19421 27299 ft 431 kts 195°
2026-05-03 21:29 51.29448 -1.20234 27570 ft 430 kts 195°
2026-05-03 21:29 51.26564 -1.21450 27984 ft 428 kts 195°
2026-05-03 21:29 51.23722 -1.22645 28363 ft 427 kts 195°
2026-05-03 21:30 51.20962 -1.23807 28721 ft 426 kts 195°
2026-05-03 21:30 51.18104 -1.25013 29086 ft 425 kts 195°
2026-05-03 21:30 51.15248 -1.26218 29471 ft 424 kts 195°
2026-05-03 21:30 51.12398 -1.27423 29831 ft 423 kts 195°
2026-05-03 21:31 51.09555 -1.28624 30151 ft 422 kts 195°
2026-05-03 21:31 51.06722 -1.29816 30439 ft 421 kts 195°
2026-05-03 21:31 51.03886 -1.31006 30708 ft 421 kts 195°
2026-05-03 21:31 51.01046 -1.32196 30977 ft 421 kts 195°
2026-05-03 21:32 50.98218 -1.33382 31249 ft 421 kts 197°
2026-05-03 21:32 50.95470 -1.34958 31511 ft 419 kts 205°
2026-05-03 21:32 50.92926 -1.37203 31768 ft 419 kts 213°
2026-05-03 21:32 50.90488 -1.39760 32020 ft 419 kts 213°
2026-05-03 21:33 50.88052 -1.42304 32271 ft 420 kts 213°
2026-05-03 21:33 50.85610 -1.44844 32462 ft 420 kts 213°
2026-05-03 21:33 50.83168 -1.47377 32738 ft 420 kts 213°
2026-05-03 21:33 50.80723 -1.49903 32995 ft 420 kts 213°
2026-05-03 21:34 50.78313 -1.52397 33235 ft 419 kts 213°
2026-05-03 21:34 50.75873 -1.54926 33479 ft 419 kts 213°
2026-05-03 21:34 50.73435 -1.57450 33723 ft 419 kts 213°
2026-05-03 21:34 50.70998 -1.59970 33945 ft 419 kts 213°
2026-05-03 21:35 50.68562 -1.62483 34126 ft 419 kts 213°
2026-05-03 21:35 50.66120 -1.64994 34288 ft 419 kts 213°
2026-05-03 21:35 50.63677 -1.67506 34454 ft 420 kts 213°
2026-05-03 21:35 50.61227 -1.70020 34632 ft 419 kts 213°
2026-05-03 21:36 50.58789 -1.72516 34812 ft 419 kts 213°
2026-05-03 21:36 50.56338 -1.75023 34917 ft 420 kts 213°
2026-05-03 21:36 50.51427 -1.80048 34941 ft 422 kts 213°
2026-05-03 21:37 50.46501 -1.85071 34944 ft 422 kts 213°
2026-05-03 21:37 50.41550 -1.90110 34949 ft 425 kts 213°
2026-05-03 21:38 50.36598 -1.95134 34945 ft 424 kts 212°
2026-05-03 21:38 50.31671 -2.00119 34946 ft 424 kts 212°
2026-05-03 21:39 50.26717 -2.05120 34951 ft 424 kts 212°
2026-05-03 21:39 50.21742 -2.10095 34955 ft 424 kts 212°
2026-05-03 21:40 50.16732 -2.14965 34955 ft 424 kts 211°
2026-05-03 21:40 50.11720 -2.19808 34963 ft 423 kts 212°
2026-05-03 21:41 50.06719 -2.24651 34964 ft 423 kts 212°
2026-05-03 21:41 50.01724 -2.29490 34979 ft 423 kts 211°
2026-05-03 21:42 49.96710 -2.34326 34963 ft 424 kts 211°
2026-05-03 21:42 49.91553 -2.38632 34954 ft 424 kts 203°
2026-05-03 21:43 49.86091 -2.42253 34961 ft 424 kts 203°
2026-05-03 21:43 49.80693 -2.45832 34965 ft 425 kts 203°
2026-05-03 21:44 49.75221 -2.49455 34967 ft 425 kts 203°
2026-05-03 21:44 49.69829 -2.53023 34964 ft 425 kts 203°
2026-05-03 21:45 49.64402 -2.56608 34983 ft 424 kts 203°
2026-05-03 21:45 49.58978 -2.60180 34988 ft 424 kts 203°
2026-05-03 21:46 49.53554 -2.63733 34991 ft 423 kts 203°
2026-05-03 21:46 49.48133 -2.67284 34989 ft 423 kts 203°
2026-05-03 21:47 49.42714 -2.70817 34997 ft 423 kts 203°
2026-05-03 21:47 49.37286 -2.74353 34987 ft 424 kts 203°
2026-05-03 21:48 49.31847 -2.77885 34979 ft 425 kts 203°
2026-05-03 21:48 49.26402 -2.81408 34970 ft 425 kts 203°
2026-05-03 21:49 49.20997 -2.84899 34982 ft 424 kts 203°
2026-05-03 21:49 49.15568 -2.88413 34987 ft 423 kts 203°
2026-05-03 21:50 49.10139 -2.91914 34983 ft 423 kts 203°
2026-05-03 21:50 49.04713 -2.95385 34986 ft 423 kts 203°
2026-05-03 21:51 48.99290 -2.98858 34985 ft 422 kts 203°
2026-05-03 21:51 48.93887 -3.02308 34988 ft 421 kts 203°
2026-05-03 21:52 48.88487 -3.05747 34986 ft 420 kts 203°
2026-05-03 21:52 48.83081 -3.09187 34970 ft 422 kts 203°
2026-05-03 21:53 48.77655 -3.12631 34963 ft 423 kts 203°
2026-05-03 21:53 48.72256 -3.16054 34964 ft 424 kts 203°
2026-05-03 21:54 48.66798 -3.19498 34967 ft 425 kts 203°
2026-05-03 21:54 48.61336 -3.22939 34966 ft 425 kts 203°
2026-05-03 21:55 48.55873 -3.26374 34973 ft 425 kts 203°
2026-05-03 21:55 48.50417 -3.29797 34985 ft 424 kts 203°
2026-05-03 21:56 48.44964 -3.33203 34987 ft 424 kts 203°
2026-05-03 21:56 48.39517 -3.36609 34987 ft 424 kts 203°
2026-05-03 21:57 48.34078 -3.40001 34991 ft 422 kts 202°
2026-05-03 21:57 48.28654 -3.43363 35012 ft 421 kts 203°
2026-05-03 21:58 48.23233 -3.46717 34988 ft 422 kts 203°
2026-05-03 21:58 48.17811 -3.50073 34979 ft 422 kts 203°
2026-05-03 21:59 48.12419 -3.53408 34978 ft 422 kts 202°
2026-05-03 21:59 48.06991 -3.56746 34989 ft 421 kts 202°
2026-05-03 22:00 48.01560 -3.60077 34990 ft 421 kts 202°
2026-05-03 22:00 47.96136 -3.63405 34993 ft 421 kts 202°
2026-05-03 22:01 47.90711 -3.66730 34987 ft 421 kts 202°
2026-05-03 22:01 47.85279 -3.70035 34989 ft 421 kts 202°
2026-05-03 22:02 47.79860 -3.73318 34991 ft 420 kts 202°
2026-05-03 22:02 47.74486 -3.76583 34991 ft 420 kts 202°
2026-05-03 22:03 47.69050 -3.79881 34979 ft 420 kts 202°
2026-05-03 22:03 47.63667 -3.83141 34965 ft 421 kts 202°
2026-05-03 22:04 47.58235 -3.86420 34966 ft 422 kts 202°
2026-05-03 22:04 47.52792 -3.89697 34968 ft 422 kts 202°
2026-05-03 22:05 47.47343 -3.92967 34957 ft 423 kts 202°
2026-05-03 22:05 47.41885 -3.96231 34962 ft 423 kts 202°
2026-05-03 22:06 47.36424 -3.99491 34968 ft 423 kts 202°
2026-05-03 22:06 47.30961 -4.02751 34960 ft 423 kts 202°
2026-05-03 22:07 47.25498 -4.06000 34976 ft 423 kts 202°
2026-05-03 22:07 47.20038 -4.09243 34979 ft 423 kts 202°
2026-05-03 22:08 47.14579 -4.12484 34994 ft 422 kts 202°
2026-05-03 22:08 47.09153 -4.15692 34964 ft 424 kts 202°
2026-05-03 22:09 47.03676 -4.18921 34965 ft 425 kts 202°
2026-05-03 22:10 46.95433 -4.23768 34967 ft 425 kts 202°
2026-05-03 22:10 46.89935 -4.26995 34969 ft 426 kts 202°
2026-05-03 22:11 46.84439 -4.30216 34985 ft 425 kts 202°
2026-05-03 22:11 46.78977 -4.33393 34992 ft 425 kts 202°
2026-05-03 22:12 46.73461 -4.36601 34994 ft 424 kts 202°
2026-05-03 22:12 46.68021 -4.39768 34996 ft 424 kts 202°
2026-05-03 22:13 46.62542 -4.42951 34991 ft 423 kts 202°
2026-05-03 22:13 46.57072 -4.46127 34989 ft 423 kts 202°
2026-05-03 22:14 46.51600 -4.49292 34992 ft 423 kts 202°
2026-05-03 22:14 46.46132 -4.52447 34986 ft 423 kts 202°
2026-05-03 22:15 46.40656 -4.55591 34994 ft 423 kts 202°
2026-05-03 22:15 46.35190 -4.58721 35000 ft 422 kts 202°
2026-05-03 22:16 46.29760 -4.61834 35005 ft 422 kts 202°
2026-05-03 22:16 46.24297 -4.64954 34995 ft 422 kts 202°
2026-05-03 22:17 46.18840 -4.68062 35008 ft 421 kts 202°
2026-05-03 22:17 46.13390 -4.71161 35010 ft 421 kts 202°
2026-05-03 22:18 46.07939 -4.74250 35011 ft 421 kts 202°
2026-05-03 22:18 46.02494 -4.77347 35026 ft 421 kts 203°
2026-05-03 22:19 45.97959 -4.79910 35021 ft 421 kts 203°
2026-05-03 22:19 45.92491 -4.82989 35018 ft 422 kts 203°
2026-05-03 22:20 45.87029 -4.86065 35017 ft 422 kts 203°
2026-05-03 22:20 45.81608 -4.89114 35011 ft 421 kts 203°
2026-05-03 22:21 45.76152 -4.92174 35014 ft 420 kts 203°
2026-05-03 22:21 45.70703 -4.95222 35016 ft 420 kts 203°
2026-05-03 22:22 45.65264 -4.98263 35008 ft 419 kts 203°
2026-05-03 22:22 45.59832 -5.01282 35016 ft 418 kts 203°
2026-05-03 22:23 45.54411 -5.04306 35019 ft 417 kts 203°
2026-05-03 22:23 45.48999 -5.07314 35028 ft 418 kts 203°
2026-05-03 22:24 45.43609 -5.10289 35009 ft 418 kts 202°
2026-05-03 22:24 45.38191 -5.13281 35018 ft 417 kts 203°
2026-05-03 22:25 45.32784 -5.16272 35020 ft 417 kts 203°
2026-05-03 22:25 45.27369 -5.19258 35020 ft 417 kts 202°
2026-05-03 22:26 45.21948 -5.22238 35017 ft 417 kts 203°
2026-05-03 22:26 45.16539 -5.25202 35021 ft 417 kts 202°
2026-05-03 22:27 45.11124 -5.28163 35024 ft 417 kts 202°
2026-05-03 22:27 45.05743 -5.31095 35014 ft 417 kts 203°
2026-05-03 22:28 45.00330 -5.34037 35023 ft 417 kts 202°
2026-05-03 22:28 44.94917 -5.36975 35034 ft 417 kts 202°
2026-05-03 22:29 44.89492 -5.39921 35021 ft 418 kts 202°
2026-05-03 22:29 44.84051 -5.42871 35016 ft 418 kts 203°
2026-05-03 22:30 44.78626 -5.45807 35027 ft 418 kts 202°
2026-05-03 22:30 44.73191 -5.48735 35033 ft 418 kts 202°
2026-05-03 22:31 44.67800 -5.51634 35037 ft 417 kts 202°
2026-05-03 22:31 44.62374 -5.54554 35037 ft 417 kts 202°
2026-05-03 22:32 44.56989 -5.57600 35045 ft 417 kts 205°
2026-05-03 22:32 44.51698 -5.60933 35039 ft 417 kts 206°
2026-05-03 22:33 44.46417 -5.64287 35033 ft 417 kts 206°
2026-05-03 22:33 44.41120 -5.67579 35044 ft 416 kts 205°
2026-05-03 22:34 44.35816 -5.70828 35046 ft 416 kts 205°
2026-05-03 22:34 44.30501 -5.74081 35031 ft 417 kts 205°
2026-05-03 22:35 44.25182 -5.77344 35017 ft 418 kts 205°
2026-05-03 22:35 44.19893 -5.80582 35028 ft 418 kts 205°
2026-05-03 22:36 44.14565 -5.83836 35034 ft 418 kts 205°
2026-05-03 22:36 44.09232 -5.87075 35037 ft 418 kts 205°
2026-05-03 22:37 44.03897 -5.90309 35033 ft 418 kts 205°
2026-05-03 22:37 43.98564 -5.93548 35034 ft 418 kts 205°
2026-05-03 22:38 43.93229 -5.96774 35050 ft 418 kts 205°
2026-05-03 22:38 43.87886 -5.99995 35045 ft 418 kts 205°
2026-05-03 22:39 43.82555 -6.03212 35037 ft 418 kts 205°
2026-05-03 22:39 43.77227 -6.06420 35033 ft 417 kts 205°
2026-05-03 22:40 43.71933 -6.09588 35053 ft 417 kts 205°
2026-05-03 22:40 43.66593 -6.12783 35012 ft 419 kts 205°
2026-05-03 22:41 43.61246 -6.15990 35023 ft 419 kts 205°
2026-05-03 22:41 43.55892 -6.19190 35019 ft 419 kts 205°
2026-05-03 22:42 43.50535 -6.22387 35022 ft 420 kts 205°
2026-05-03 22:42 43.45166 -6.25576 35017 ft 420 kts 205°
2026-05-03 22:43 43.39802 -6.28751 35024 ft 419 kts 205°
2026-05-03 22:43 43.34443 -6.31932 35028 ft 419 kts 205°
2026-05-03 22:44 43.29084 -6.35101 35038 ft 419 kts 205°
2026-05-03 22:44 43.23729 -6.38262 35026 ft 419 kts 206°
2026-05-03 22:45 43.18361 -6.41415 35037 ft 419 kts 205°
2026-05-03 22:45 43.13006 -6.44562 35043 ft 419 kts 206°
2026-05-03 22:46 43.07636 -6.47711 35058 ft 420 kts 206°
2026-05-03 22:46 43.02267 -6.50852 35034 ft 420 kts 206°
2026-05-03 22:47 42.96928 -6.53978 35035 ft 420 kts 206°
2026-05-03 22:47 42.91550 -6.57114 35034 ft 420 kts 206°
2026-05-03 22:48 42.86171 -6.60245 35041 ft 420 kts 206°
2026-05-03 22:48 42.80792 -6.63378 35029 ft 421 kts 206°
2026-05-03 22:49 42.75404 -6.66502 35028 ft 421 kts 206°
2026-05-03 22:49 42.70004 -6.69621 35039 ft 422 kts 206°
2026-05-03 22:50 42.64587 -6.72749 35042 ft 422 kts 206°
2026-05-03 22:50 42.59189 -6.75868 35046 ft 422 kts 206°
2026-05-03 22:51 42.53781 -6.78979 35049 ft 422 kts 206°
2026-05-03 22:51 42.48370 -6.82086 35044 ft 422 kts 206°
2026-05-03 22:52 42.42957 -6.85185 35061 ft 422 kts 206°
2026-05-03 22:52 42.37537 -6.88292 35036 ft 423 kts 206°
2026-05-03 22:53 42.32109 -6.91392 35041 ft 424 kts 206°
2026-05-03 22:53 42.26716 -6.94463 35042 ft 424 kts 206°
2026-05-03 22:54 42.21283 -6.97557 35042 ft 424 kts 206°
2026-05-03 22:54 42.15850 -7.00648 35047 ft 423 kts 206°
2026-05-03 22:55 42.10420 -7.03725 35052 ft 423 kts 206°
2026-05-03 22:55 42.04997 -7.06798 35054 ft 423 kts 206°
2026-05-03 22:56 41.99577 -7.09863 35056 ft 422 kts 206°
2026-05-03 22:56 41.94161 -7.12916 35038 ft 421 kts 206°
2026-05-03 22:57 41.88760 -7.15952 35060 ft 421 kts 206°
2026-05-03 22:57 41.83357 -7.18986 35050 ft 420 kts 206°
2026-05-03 22:58 41.77967 -7.22009 35050 ft 420 kts 206°
2026-05-03 22:58 41.72499 -7.24671 35029 ft 423 kts 200°
2026-05-03 22:59 41.66859 -7.26929 35027 ft 424 kts 200°
2026-05-03 22:59 41.61209 -7.29195 35031 ft 424 kts 200°
2026-05-03 23:00 41.55549 -7.31468 35035 ft 425 kts 200°
2026-05-03 23:00 41.49883 -7.33731 35040 ft 424 kts 200°
2026-05-03 23:01 41.44226 -7.35982 35051 ft 424 kts 200°
2026-05-03 23:01 41.38580 -7.38226 35050 ft 423 kts 200°
2026-05-03 23:02 41.32980 -7.40455 35047 ft 423 kts 200°
2026-05-03 23:02 41.27344 -7.42693 35046 ft 422 kts 201°
2026-05-03 23:03 41.21721 -7.44919 35055 ft 421 kts 201°
2026-05-03 23:03 41.16101 -7.47145 35060 ft 421 kts 201°
2026-05-03 23:04 41.10483 -7.49361 35061 ft 421 kts 201°
2026-05-03 23:04 41.04861 -7.51571 35057 ft 420 kts 201°
2026-05-03 23:05 40.99253 -7.53777 35070 ft 420 kts 201°
2026-05-03 23:05 40.93686 -7.55962 35072 ft 419 kts 201°
2026-05-03 23:06 40.88087 -7.58155 35051 ft 420 kts 201°
2026-05-03 23:06 40.82463 -7.60367 35086 ft 419 kts 201°
2026-05-03 23:07 40.76908 -7.62546 35082 ft 419 kts 201°
2026-05-03 23:07 40.72227 -7.64371 35078 ft 419 kts 201°
2026-05-03 23:08 40.66630 -7.66533 35077 ft 419 kts 201°
2026-05-03 23:08 40.61035 -7.68699 35062 ft 418 kts 201°
2026-05-03 23:09 40.55452 -7.70868 35071 ft 417 kts 201°
2026-05-03 23:09 40.49887 -7.73031 35073 ft 417 kts 201°
2026-05-03 23:10 40.44319 -7.75181 35073 ft 417 kts 201°
2026-05-03 23:10 40.38789 -7.77315 35073 ft 417 kts 201°
2026-05-03 23:11 40.33222 -7.79465 35074 ft 417 kts 201°
2026-05-03 23:11 40.27647 -7.81609 35074 ft 417 kts 201°
2026-05-03 23:12 40.22072 -7.83745 35073 ft 417 kts 201°
2026-05-03 23:12 40.16491 -7.85883 35069 ft 417 kts 201°
2026-05-03 23:13 40.10923 -7.88013 35078 ft 417 kts 201°
2026-05-03 23:13 40.05361 -7.90142 35085 ft 416 kts 201°
2026-05-03 23:14 39.99808 -7.92260 35082 ft 416 kts 201°
2026-05-03 23:14 39.94263 -7.94372 35071 ft 414 kts 202°
2026-05-03 23:15 39.88740 -7.96477 35081 ft 413 kts 202°
2026-05-03 23:15 39.83217 -7.98569 35095 ft 413 kts 202°
2026-05-03 23:16 39.77707 -8.00648 35090 ft 412 kts 202°
2026-05-03 23:16 39.72205 -8.02731 35071 ft 411 kts 202°
2026-05-03 23:17 39.66718 -8.04804 35085 ft 410 kts 202°
2026-05-03 23:17 39.61239 -8.06866 35086 ft 410 kts 202°
2026-05-03 23:18 39.55795 -8.08908 35084 ft 409 kts 202°
2026-05-03 23:18 39.50330 -8.10963 35062 ft 408 kts 202°
2026-05-03 23:19 39.44871 -8.13019 35085 ft 408 kts 203°
2026-05-03 23:19 39.39432 -8.15055 35082 ft 407 kts 203°
2026-05-03 23:20 39.33986 -8.17093 35083 ft 407 kts 202°
2026-05-03 23:20 39.28552 -8.19118 35052 ft 407 kts 203°
2026-05-03 23:21 39.23121 -8.21137 35074 ft 406 kts 203°
2026-05-03 23:21 39.17700 -8.23159 35083 ft 405 kts 203°
2026-05-03 23:22 39.09575 -8.26182 35089 ft 405 kts 203°
2026-05-03 23:22 39.04152 -8.28191 35054 ft 405 kts 203°
2026-05-03 23:23 38.98782 -8.30169 35080 ft 404 kts 203°
2026-05-03 23:23 38.93367 -8.32162 35088 ft 404 kts 203°
2026-05-03 23:24 38.87966 -8.34153 35098 ft 404 kts 203°
2026-05-03 23:24 38.82560 -8.36141 35101 ft 404 kts 203°
2026-05-03 23:25 38.77151 -8.38138 35080 ft 404 kts 204°
2026-05-03 23:25 38.71753 -8.40126 35082 ft 403 kts 204°
2026-05-03 23:26 38.66360 -8.42096 35083 ft 403 kts 204°
2026-05-03 23:26 38.60958 -8.44071 35085 ft 403 kts 204°
2026-05-03 23:27 38.55568 -8.46042 35054 ft 403 kts 204°
2026-05-03 23:27 38.50207 -8.47996 35068 ft 403 kts 204°
2026-05-03 23:28 38.44821 -8.49962 35074 ft 402 kts 204°
2026-05-03 23:28 38.39433 -8.51923 35081 ft 402 kts 204°
2026-05-03 23:29 38.34046 -8.53882 35052 ft 402 kts 204°
2026-05-03 23:29 38.28662 -8.55834 35063 ft 402 kts 204°
2026-05-03 23:30 38.23283 -8.57784 35076 ft 402 kts 204°
2026-05-03 23:30 38.17902 -8.59730 35081 ft 402 kts 204°
2026-05-03 23:31 38.12516 -8.61667 35089 ft 402 kts 204°
2026-05-03 23:31 38.07137 -8.63602 35088 ft 401 kts 204°
2026-05-03 23:32 38.01763 -8.65540 35091 ft 401 kts 204°
2026-05-03 23:32 37.96392 -8.67467 35091 ft 402 kts 204°
2026-05-03 23:33 37.91007 -8.69393 35087 ft 402 kts 204°
2026-05-03 23:33 37.85660 -8.71301 35052 ft 401 kts 204°
2026-05-03 23:34 37.80282 -8.73222 35074 ft 402 kts 204°
2026-05-03 23:34 37.74893 -8.75143 35078 ft 402 kts 204°
2026-05-03 23:35 37.69501 -8.77069 35083 ft 403 kts 204°
2026-05-03 23:35 37.64103 -8.78993 35087 ft 403 kts 204°
2026-05-03 23:36 37.58702 -8.80907 35083 ft 403 kts 204°
2026-05-03 23:36 37.53305 -8.82832 35095 ft 402 kts 204°
2026-05-03 23:37 37.47921 -8.84743 35104 ft 402 kts 204°
2026-05-03 23:37 37.42523 -8.86650 35109 ft 402 kts 204°
2026-05-03 23:38 37.37159 -8.88552 35078 ft 402 kts 204°
2026-05-03 23:38 37.31768 -8.90450 35094 ft 402 kts 204°
2026-05-03 23:39 37.26387 -8.92349 35099 ft 401 kts 204°
2026-05-03 23:39 37.21008 -8.94242 35108 ft 401 kts 204°
2026-05-03 23:40 37.15630 -8.96128 35105 ft 401 kts 204°
2026-05-03 23:40 37.10253 -8.98009 35075 ft 401 kts 204°
2026-05-03 23:41 37.04867 -8.99892 35091 ft 401 kts 204°
2026-05-03 23:41 36.99529 -9.01756 35097 ft 401 kts 204°
2026-05-03 23:42 36.94158 -9.03634 35102 ft 401 kts 204°
2026-05-03 23:42 36.88774 -9.05510 35072 ft 401 kts 204°
2026-05-03 23:43 36.83397 -9.07371 35081 ft 401 kts 204°
2026-05-03 23:43 36.78010 -9.09235 35089 ft 401 kts 204°
2026-05-03 23:44 36.72627 -9.11109 35091 ft 402 kts 204°
2026-05-03 23:44 36.67277 -9.12979 35097 ft 402 kts 204°
2026-05-03 23:45 36.61886 -9.14846 35083 ft 403 kts 204°
2026-05-03 23:45 36.56466 -9.16716 35093 ft 404 kts 204°
2026-05-03 23:46 36.51040 -9.18585 35098 ft 405 kts 204°
2026-05-03 23:46 36.45610 -9.20447 35103 ft 405 kts 204°
2026-05-03 23:47 36.40184 -9.22313 35109 ft 405 kts 204°
2026-05-03 23:47 36.34758 -9.24186 35086 ft 405 kts 204°
2026-05-03 23:48 36.29353 -9.26036 35093 ft 405 kts 204°
2026-05-03 23:48 36.23914 -9.27893 35106 ft 405 kts 204°
2026-05-03 23:49 36.18479 -9.29760 35108 ft 405 kts 204°
2026-05-03 23:49 36.13043 -9.31623 35071 ft 405 kts 204°
2026-05-03 23:50 36.08530 -9.33163 35080 ft 405 kts 204°
2026-05-03 23:50 36.02174 -9.35325 35091 ft 405 kts 204°
2026-05-03 23:51 35.96767 -9.37233 35100 ft 400 kts 209°
2026-05-03 23:51 35.91781 -9.40079 35105 ft 394 kts 213°
2026-05-03 23:52 35.86832 -9.43001 35087 ft 394 kts 213°
2026-05-03 23:52 35.81917 -9.45884 35093 ft 394 kts 213°
2026-05-03 23:53 35.76964 -9.48787 35092 ft 394 kts 213°
2026-05-03 23:53 35.72006 -9.51700 35100 ft 395 kts 213°
2026-05-03 23:54 35.67052 -9.54601 35107 ft 395 kts 213°
2026-05-03 23:54 35.62927 -9.57015 35111 ft 395 kts 213°
2026-05-03 23:55 35.57956 -9.59906 35117 ft 395 kts 213°
2026-05-03 23:55 35.52985 -9.62801 35124 ft 395 kts 213°
2026-05-03 23:56 35.48015 -9.65699 35127 ft 395 kts 213°
2026-05-03 23:56 35.43046 -9.68596 35130 ft 395 kts 213°
2026-05-03 23:57 35.38086 -9.71479 35128 ft 395 kts 213°
2026-05-03 23:57 35.33112 -9.74366 35109 ft 395 kts 213°
2026-05-03 23:58 35.28172 -9.77226 35115 ft 395 kts 213°
2026-05-03 23:58 35.23194 -9.80102 35123 ft 396 kts 213°
2026-05-03 23:59 35.18216 -9.82979 35123 ft 396 kts 213°
2026-05-03 23:59 35.13240 -9.85851 35122 ft 396 kts 212°
2026-05-04 00:00 35.08249 -9.88724 35093 ft 396 kts 212°
2026-05-04 00:00 35.03260 -9.91599 35109 ft 396 kts 212°
2026-05-04 00:01 34.98263 -9.94472 35118 ft 397 kts 212°
2026-05-04 00:01 34.93264 -9.97338 35130 ft 397 kts 212°
2026-05-04 00:02 34.88252 -10.00204 35136 ft 397 kts 212°
2026-05-04 00:02 34.83282 -10.03049 35125 ft 397 kts 212°
2026-05-04 00:03 34.78279 -10.05917 35102 ft 398 kts 212°
2026-05-04 00:03 34.73269 -10.08780 35112 ft 398 kts 212°
2026-05-04 00:04 34.68261 -10.11636 35120 ft 398 kts 212°
2026-05-04 00:04 34.63236 -10.14490 35129 ft 398 kts 212°
2026-05-04 00:05 34.58218 -10.17332 35131 ft 398 kts 212°
2026-05-04 00:05 34.53204 -10.20176 35106 ft 398 kts 212°
2026-05-04 00:06 34.48183 -10.23022 35114 ft 399 kts 212°
2026-05-04 00:06 34.43189 -10.25854 35118 ft 399 kts 212°
2026-05-04 00:07 34.38151 -10.28699 35126 ft 400 kts 212°
2026-05-04 00:07 34.33110 -10.31554 35129 ft 400 kts 212°
2026-05-04 00:08 34.28068 -10.34403 35107 ft 400 kts 211°
2026-05-04 00:08 34.23006 -10.37253 35114 ft 401 kts 211°
2026-05-04 00:09 34.17934 -10.40101 35117 ft 402 kts 211°
2026-05-04 00:09 34.12856 -10.42943 35125 ft 403 kts 211°
2026-05-04 00:10 34.07771 -10.45791 35130 ft 402 kts 211°
2026-05-04 00:10 34.02700 -10.48635 35113 ft 402 kts 211°
2026-05-04 00:11 33.97616 -10.51487 35100 ft 404 kts 211°
2026-05-04 00:11 33.92511 -10.54338 35108 ft 405 kts 211°
2026-05-04 00:12 33.87422 -10.57179 35114 ft 406 kts 211°
2026-05-04 00:12 33.82299 -10.60032 35123 ft 406 kts 211°
2026-05-04 00:13 33.77171 -10.62878 35126 ft 406 kts 211°
2026-05-04 00:13 33.72044 -10.65731 35100 ft 406 kts 211°
2026-05-04 00:14 33.66904 -10.68579 35107 ft 407 kts 211°
2026-05-04 00:14 33.61752 -10.71435 35114 ft 407 kts 211°
2026-05-04 00:15 33.56608 -10.74284 35122 ft 408 kts 211°
2026-05-04 00:15 33.51454 -10.77128 35125 ft 408 kts 211°
2026-05-04 00:16 33.46301 -10.79973 35099 ft 408 kts 211°
2026-05-04 00:16 33.41146 -10.82822 35112 ft 408 kts 211°
2026-05-04 00:17 33.36018 -10.85649 35121 ft 409 kts 211°
2026-05-04 00:17 33.30856 -10.88484 35123 ft 409 kts 211°
2026-05-04 00:18 33.25681 -10.91322 35120 ft 409 kts 211°
2026-05-04 00:18 33.20511 -10.94155 35114 ft 409 kts 210°
2026-05-04 00:19 33.15344 -10.96981 35101 ft 409 kts 210°
2026-05-04 00:19 33.10163 -10.99812 35108 ft 409 kts 210°
2026-05-04 00:20 33.04987 -11.02643 35119 ft 409 kts 211°
2026-05-04 00:20 32.99809 -11.05476 35123 ft 409 kts 210°
2026-05-04 00:21 32.94618 -11.08297 35123 ft 410 kts 210°
2026-05-04 00:21 32.89461 -11.11102 35126 ft 410 kts 210°
2026-05-04 00:22 32.84277 -11.13913 35130 ft 410 kts 210°
2026-05-04 00:22 32.79085 -11.16739 35133 ft 410 kts 210°
2026-05-04 00:23 32.73898 -11.19561 35137 ft 410 kts 210°
2026-05-04 00:23 32.68706 -11.22373 35139 ft 410 kts 210°
2026-05-04 00:24 32.63518 -11.25178 35117 ft 410 kts 210°
2026-05-04 00:24 32.58316 -11.27977 35123 ft 411 kts 210°
2026-05-04 00:25 32.53109 -11.30778 35127 ft 411 kts 210°
2026-05-04 00:25 32.47896 -11.33592 35131 ft 411 kts 210°
2026-05-04 00:26 32.42721 -11.36384 35136 ft 412 kts 210°
2026-05-04 00:26 32.37494 -11.39193 35141 ft 412 kts 210°
2026-05-04 00:27 32.32274 -11.41986 35133 ft 412 kts 210°
2026-05-04 00:27 32.27042 -11.44787 35136 ft 412 kts 210°
2026-05-04 00:28 32.21821 -11.47583 35139 ft 412 kts 210°
2026-05-04 00:28 32.16622 -11.50366 35136 ft 412 kts 210°
2026-05-04 00:29 32.11391 -11.53158 35144 ft 413 kts 210°
2026-05-04 00:29 32.06154 -11.55949 35108 ft 413 kts 210°
2026-05-04 00:30 32.00919 -11.58737 35116 ft 413 kts 210°
2026-05-04 00:30 31.95682 -11.61524 35122 ft 413 kts 210°
2026-05-04 00:31 31.90444 -11.64305 35125 ft 413 kts 210°
2026-05-04 00:31 31.85203 -11.67080 35128 ft 413 kts 210°
2026-05-04 00:32 31.79998 -11.69841 35103 ft 413 kts 210°
2026-05-04 00:32 31.74759 -11.72616 35112 ft 413 kts 210°
2026-05-04 00:33 31.66899 -11.76776 35126 ft 413 kts 210°
2026-05-04 00:34 31.61651 -11.79533 35129 ft 413 kts 210°
2026-05-04 00:34 31.56406 -11.82295 35131 ft 413 kts 210°
2026-05-04 00:35 31.51164 -11.85055 35105 ft 413 kts 210°
2026-05-04 00:35 31.45920 -11.87815 35112 ft 413 kts 210°
2026-05-04 00:36 31.40668 -11.90565 35118 ft 414 kts 210°
2026-05-04 00:36 31.35416 -11.93318 35122 ft 413 kts 210°
2026-05-04 00:37 31.30168 -11.96071 35124 ft 413 kts 210°
2026-05-04 00:37 31.24920 -11.98821 35126 ft 413 kts 210°
2026-05-04 00:38 31.19665 -12.01565 35098 ft 414 kts 210°
2026-05-04 00:38 31.14397 -12.04312 35123 ft 415 kts 210°
2026-05-04 00:39 31.09131 -12.07051 35128 ft 415 kts 210°
2026-05-04 00:39 31.03855 -12.09794 35131 ft 414 kts 210°
2026-05-04 00:40 30.98592 -12.12536 35131 ft 414 kts 210°
2026-05-04 00:40 30.93322 -12.15265 35101 ft 414 kts 210°
2026-05-04 00:41 30.88056 -12.17997 35107 ft 415 kts 210°
2026-05-04 00:41 30.82807 -12.20718 35113 ft 415 kts 210°
2026-05-04 00:42 30.77493 -12.23467 35110 ft 416 kts 210°
2026-05-04 00:42 30.72236 -12.26188 35118 ft 416 kts 210°
2026-05-04 00:43 30.66945 -12.28922 35131 ft 416 kts 210°
2026-05-04 00:43 30.61648 -12.31650 35110 ft 417 kts 210°
2026-05-04 00:44 30.56343 -12.34369 35132 ft 417 kts 210°
2026-05-04 00:44 30.51063 -12.37152 35131 ft 413 kts 214°
2026-05-04 00:45 30.47165 -12.40255 35133 ft 408 kts 221°
2026-05-04 00:45 30.42613 -12.44182 35137 ft 408 kts 221°
2026-05-04 00:46 30.37320 -12.48737 35142 ft 408 kts 221°
2026-05-04 00:46 30.33498 -12.52014 35121 ft 408 kts 221°
2026-05-04 00:47 30.28959 -12.55893 35120 ft 408 kts 221°
2026-05-04 00:47 30.24390 -12.59787 35126 ft 408 kts 221°
2026-05-04 00:48 30.19832 -12.63683 35134 ft 408 kts 221°
2026-05-04 00:48 30.15267 -12.67589 35135 ft 408 kts 221°
2026-05-04 00:49 30.10690 -12.71464 35134 ft 409 kts 218°
2026-05-04 00:49 30.05716 -12.74731 35135 ft 412 kts 214°
2026-05-04 00:50 30.01108 -12.77680 35131 ft 412 kts 214°
2026-05-04 00:50 29.96090 -12.80884 35132 ft 412 kts 214°
2026-05-04 00:51 29.91098 -12.84066 35136 ft 412 kts 214°
2026-05-04 00:51 29.86077 -12.87262 35134 ft 412 kts 214°
2026-05-04 00:52 29.81053 -12.90466 35134 ft 412 kts 214°
2026-05-04 00:52 29.76039 -12.93664 35133 ft 412 kts 214°
2026-05-04 00:53 29.71018 -12.96853 35116 ft 412 kts 214°
2026-05-04 00:53 29.65993 -13.00038 35123 ft 412 kts 214°
2026-05-04 00:54 29.60970 -13.03221 35128 ft 412 kts 214°
2026-05-04 00:54 29.55951 -13.06404 35132 ft 412 kts 214°
2026-05-04 00:55 29.50935 -13.09585 35126 ft 412 kts 214°
2026-05-04 00:55 29.45917 -13.12762 35096 ft 412 kts 214°
2026-05-04 00:56 29.40892 -13.15925 35113 ft 412 kts 214°
2026-05-04 00:56 29.35868 -13.19082 35116 ft 412 kts 213°
2026-05-04 00:57 29.30723 -13.22038 35118 ft 415 kts 211°
2026-05-04 00:57 29.25519 -13.24815 35119 ft 415 kts 211°
2026-05-04 00:58 29.20285 -13.27614 35121 ft 415 kts 211°
2026-05-04 00:58 29.15070 -13.30463 35092 ft 415 kts 212°
2026-05-04 00:59 29.09861 -13.33322 35109 ft 415 kts 212°
2026-05-04 00:59 29.04655 -13.36172 35115 ft 414 kts 212°
2026-05-04 01:00 28.99456 -13.39023 35115 ft 414 kts 212°
2026-05-04 01:00 28.94300 -13.41838 35073 ft 414 kts 212°
2026-05-04 01:00 28.91696 -13.43256 34565 ft 415 kts 211°
2026-05-04 01:01 28.89087 -13.44673 34073 ft 415 kts 211°
2026-05-04 01:01 28.86475 -13.46092 33515 ft 417 kts 211°
2026-05-04 01:01 28.83845 -13.47520 32946 ft 418 kts 211°
2026-05-04 01:01 28.81214 -13.48950 32417 ft 420 kts 211°
2026-05-04 01:02 28.78573 -13.50387 31890 ft 421 kts 211°
2026-05-04 01:02 28.75930 -13.51824 31372 ft 422 kts 211°
2026-05-04 01:02 28.73266 -13.53270 30863 ft 424 kts 210°
2026-05-04 01:02 28.70593 -13.54717 30360 ft 426 kts 210°
2026-05-04 01:03 28.67909 -13.56171 29810 ft 428 kts 210°
2026-05-04 01:03 28.65211 -13.57634 29235 ft 428 kts 210°
2026-05-04 01:03 28.62547 -13.59077 28672 ft 422 kts 210°
2026-05-04 01:03 28.59911 -13.60501 28122 ft 416 kts 210°
2026-05-04 01:04 28.57306 -13.61906 27582 ft 411 kts 210°
2026-05-04 01:04 28.54773 -13.63275 27045 ft 406 kts 210°
2026-05-04 01:04 28.52238 -13.64637 26530 ft 402 kts 209°
2026-05-04 01:04 28.49697 -13.65932 26021 ft 398 kts 208°
2026-05-04 01:05 28.47148 -13.67125 25516 ft 396 kts 202°
2026-05-04 01:05 28.44396 -13.67542 25027 ft 405 kts 182°
2026-05-04 01:05 28.41594 -13.67145 24545 ft 405 kts 178°
2026-05-04 01:05 28.38813 -13.66690 24074 ft 401 kts 178°
2026-05-04 01:06 28.36076 -13.66141 23583 ft 403 kts 169°
2026-05-04 01:06 28.33499 -13.64833 23032 ft 407 kts 158°
2026-05-04 01:06 28.31012 -13.63308 22478 ft 404 kts 157°
2026-05-04 01:06 28.28557 -13.61776 21945 ft 401 kts 157°
2026-05-04 01:07 28.26120 -13.60252 21399 ft 397 kts 158°
2026-05-04 01:07 28.23582 -13.59235 20884 ft 379 kts 179°
2026-05-04 01:07 28.21008 -13.59307 20376 ft 367 kts 192°
2026-05-04 01:07 28.18484 -13.59643 19877 ft 364 kts 192°
2026-05-04 01:08 28.15982 -13.60007 19383 ft 362 kts 192°
2026-05-04 01:08 28.13522 -13.60380 18906 ft 360 kts 193°
2026-05-04 01:08 28.11104 -13.60968 18420 ft 351 kts 207°
2026-05-04 01:08 28.09090 -13.62418 17878 ft 340 kts 224°
2026-05-04 01:09 28.07346 -13.64169 17322 ft 330 kts 224°
2026-05-04 01:09 28.05660 -13.65868 16792 ft 321 kts 224°
2026-05-04 01:09 28.04020 -13.67520 16442 ft 307 kts 225°
2026-05-04 01:09 28.02477 -13.69073 16265 ft 286 kts 225°
2026-05-04 01:10 28.01147 -13.70642 15834 ft 266 kts 238°
2026-05-04 01:10 28.00362 -13.72467 15254 ft 254 kts 254°
2026-05-04 01:10 27.99943 -13.74398 14543 ft 252 kts 256°
2026-05-04 01:10 27.99527 -13.76326 13831 ft 251 kts 256°
2026-05-04 01:11 27.99111 -13.78238 13047 ft 250 kts 256°
2026-05-04 01:11 27.98701 -13.80115 12322 ft 248 kts 257°
2026-05-04 01:11 27.98546 -13.82036 11600 ft 246 kts 279°
2026-05-04 01:11 27.99215 -13.83795 10920 ft 247 kts 307°
2026-05-04 01:12 28.00590 -13.84958 10241 ft 253 kts 335°
2026-05-04 01:12 28.02340 -13.85205 9542 ft 258 kts 360°
2026-05-04 01:12 28.04127 -13.85067 8816 ft 257 kts 360°
2026-05-04 01:12 28.05896 -13.84942 8148 ft 253 kts
2026-05-04 01:13 28.07641 -13.84824 7513 ft 248 kts
2026-05-04 01:13 28.09351 -13.84711 6894 ft 244 kts
2026-05-04 01:13 28.11032 -13.84602 6280 ft 240 kts
2026-05-04 01:13 28.12680 -13.84493 5664 ft 234 kts
2026-05-04 01:14 28.14290 -13.84384 5033 ft 230 kts
2026-05-04 01:14 28.15881 -13.84274 4410 ft 227 kts
2026-05-04 01:14 28.17441 -13.84170 4121 ft 222 kts
2026-05-04 01:14 28.18978 -13.84137 4031 ft 225 kts 352°
2026-05-04 01:15 28.20428 -13.84837 3915 ft 229 kts 332°
2026-05-04 01:15 28.21802 -13.85689 3708 ft 223 kts 333°
2026-05-04 01:15 28.23113 -13.86481 3446 ft 207 kts 336°
2026-05-04 01:15 28.24506 -13.86917 3319 ft 201 kts 354°
2026-05-04 01:16 28.25815 -13.86988 3173 ft 176 kts
2026-05-04 01:16 28.26974 -13.86970 3042 ft 160 kts
2026-05-04 01:16 28.28059 -13.86940 2943 ft 151 kts
2026-05-04 01:16 28.29091 -13.86908 2880 ft 147 kts
2026-05-04 01:17 28.30111 -13.86876 2750 ft 146 kts
2026-05-04 01:17 28.31116 -13.86843 2586 ft 144 kts
2026-05-04 01:17 28.32118 -13.86810 2400 ft 144 kts
2026-05-04 01:17 28.33125 -13.86777 2210 ft 144 kts
2026-05-04 01:18 28.34132 -13.86744 2027 ft 145 kts
2026-05-04 01:18 28.35142 -13.86711 1827 ft 144 kts
2026-05-04 01:18 28.36135 -13.86678 1635 ft 142 kts
2026-05-04 01:18 28.37138 -13.86645 1443 ft 144 kts
2026-05-04 01:19 28.38142 -13.86612 1252 ft 144 kts
2026-05-04 01:19 28.39142 -13.86579 1062 ft 143 kts
2026-05-04 01:19 28.40137 -13.86546 874 ft 142 kts
2026-05-04 01:19 28.41112 -13.86514 679 ft 141 kts
2026-05-04 01:20 28.42089 -13.86483 489 ft 141 kts
2026-05-04 01:20 28.43070 -13.86464 327 ft 140 kts
2026-05-04 01:20 28.44043 -13.86417 127 ft 140 kts
2026-05-04 01:20 28.45005 -13.86380 73 ft 132 kts
2026-05-04 01:21 28.45710 -13.86355 88 ft 60 kts
2026-05-04 01:21 28.45975 -13.86383 91 ft 33 kts 341°
2026-05-04 01:21 28.46097 -13.86448 95 ft 7 kts 330°
2026-05-04 01:21 28.46128 -13.86470 95 ft 4 kts 323°
2026-05-04 01:22 28.46143 -13.86502 98 ft 5 kts 276°
2026-05-04 01:22 28.46116 -13.86536 101 ft 10 kts 196°
2026-05-04 01:22 28.46025 -13.86545 98 ft 14 kts 182°
2026-05-04 01:22 28.45933 -13.86547 100 ft 13 kts 181°
2026-05-04 01:23 28.45846 -13.86549 99 ft 12 kts 181°
2026-05-04 01:23 28.45761 -13.86553 99 ft 12 kts 183°
2026-05-04 01:23 28.45679 -13.86557 97 ft 11 kts 182°
2026-05-04 01:23 28.45603 -13.86559 96 ft 11 kts 181°
2026-05-04 01:24 28.45528 -13.86561 96 ft 11 kts 181°
2026-05-04 01:24 28.45452 -13.86562 98 ft 11 kts 181°
2026-05-04 01:24 28.45382 -13.86584 100 ft 9 kts 229°
2026-05-04 01:24 28.45371 -13.86638 98 ft 6 kts 268°
2026-05-04 01:25 28.45371 -13.86683 99 ft 8 kts 271°
2026-05-04 01:25 28.45340 -13.86738 99 ft 7 kts 229°
2026-05-04 01:25 28.45329 -13.86787 101 ft 6 kts 270°
2026-05-04 01:25 28.45330 -13.86826 101 ft 4 kts 272°
2026-05-04 01:26 28.45331 -13.86833 101 ft 0 kts 272°